Showing default

ICEYE-X46, 63258

Orbit data source: Space-Track

ICEYE-X46, 63258 is a payload satellite owned by ICEYE (FI) in SSO that was launched on Sat, 15 Mar 2025 UTC via an FALCON 9 launch vehicle from the Air Force Western Test Range (AFWTR). Payload-class satellites include a variety of spacecraft equipped with specific instruments for various scientific and technological missions. These include communications satellites like Starlink; space stations such as the ISS; scientific satellites like the Hubble; Earth observation satellites from companies like Planet Labs, Umbra, and HawkEye 360; GPS; miniature CubeSats for education and research; and military/defense satellites.

Loading next visibility...
Identifier
63258, 2025-052BA
Orbit
SSO
Country
Flag of FIFI / FIN
Related business
Manufacturer
ICEYE
Mission
Operational Commercial Radar Imaging
Bus & Motor
ICEYE, Unknown motor
Mass
80 kg wet, 80 kg dry
Launch date (UTC)
2025-03-15 (2 years ago)
Launch vehicle
FALCON 9
Launch site
Air Force Western Test Range (AFWTR)
Object type
Payload
Rocket body
Debris
Shape & HBR
Box + 1 Pan, 2.4 m
Radar Cross Section
0.776 m², Medium (>0.1 m² and < 1m²)

Expand to show TLE details & history
Last TLE update: 17 hours ago

TLE from 17 hours ago
0 ICEYE-X46
1 63258U 25052BA  26265.11055572  .00001555  00000-0  14534-3 0  9991
2 63258  97.6743 155.0850 0001744  85.1889 274.9531 14.95550446 83130
Epoch: 2026-09-22T02:39Z
TLE epoch observation values (Epoch: 2026-09-22T02:39:12.014Z)
Latitude
-0.00002°
Longitude
114.30421°
Altitude
583.609 km
Speed
7.569 km/s
True Right ascension
10h 20m 20s
True Declination
0° 00' 00"
Sunlit
Object was in daylight at epoch
Visualization orbit readout
Latitude
Unknown
Longitude
Unknown
Altitude
Unknown
Speed
Unknown
Apparent Right ascension
Unknown
Apparent Declination
Unknown
Sunlit
N/A
Visualization observer readout
Local Sidereal Time
12:40:59
Azimuth
Unknown
Elevation
Unknown
Doppler factor
Unknown
Orbital elements
Apogee altitude
578.888 km
Perigee altitude
576.462 km
Semi-major axis
6,955.812 km
Eccentricity
0.00017
Inclination
97.6743°
RAAN
155.085°
Arg. of periapsis
85.1889°
True anomaly
274.93319°
Mean anomaly
274.9531°
Eccentric anomaly
274.94314°
Mean motion
3.74129 °/min
Orbital period
96.22 mins
BSTAR
0.00014534
Loading maneuver chart data...
Computing Atmospheric mass density...
Loading historical data...
Loading historical data...
Loading historical data...
Loading historical data...
Loading historical data...
Loading historical data...
Loading historical data...

Documentation

Showing up to 5 results
|